Flag for U.S.A. Weather past 2 weeks in Bridgeport, Connecticut, U.S.A.

Now
45 °F

Clear.


Feels Like: 43 °F
Forecast: 37 / 59 °F
Wind: 5 mph from Northwest

Location: Sikorsky Memorial Airport


UV Index: 5 (Moderate)

Visibility: 10 mi


Pressure: 30.00 "Hg

Humidity: 38%

Dew point: 21 °F

Location of BridgeportLocation

Historic Weather in Bridgeport

°F

Bridgeport temperature yesterday

Maximum temperature yesterday: 61 °F (at 4:52 PM)
Minimum temperature yesterday: 43 °F (at 5:52 AM)
Average temperature yesterday: 52 °F

Past Weeks' High & Low Weather Summary

 TemperatureHumidityPressure
High68 °F (Apr 12, 3:52 PM)100% (Apr 15, 2:52 AM)30.75 "Hg (Apr 15, 2:52 AM)
Low32 °F (Apr 16, 5:52 AM)13% (Apr 24, 2:52 PM)29.47 "Hg (Apr 23, 4:52 AM)
Average50 °F62%30.09 "Hg
* Reported Apr 10 2:52 AM — Apr 25 2:52 AM, Bridgeport, Weather by CustomWeather, © 2014

Note: Actual official high and low records may vary slightly from our data, if they occured in-between our weather recording intervals... More about our weather records

Advertising

Historic Weather Conditions — Data for Previous 24 hours

 ConditionsComfort  
Time TempWeatherWind HumidityBarometerVisibility
2:52 AM
Apr 25
46 °FClear.6 mph35%29.99 "Hg10 mi
1:52 AM47 °FClear.8 mph34%30.00 "Hg10 mi
12:52 AM49 °FClear.9 mph31%30.00 "Hg10 mi
11:52 PM
Apr 24
50 °FClear.10 mph28%30.00 "Hg10 mi
10:52 PM52 °FClear.10 mph25%29.98 "Hg10 mi
9:52 PM53 °FClear.12 mph22%29.96 "Hg10 mi
8:52 PM54 °FClear.15 mph20%29.94 "Hg10 mi
7:52 PM56 °FSunny.15 mph18%29.90 "Hg10 mi
6:52 PM58 °FSunny.20 mph15%29.87 "Hg10 mi
5:52 PM60 °FSunny.21 mph14%29.85 "Hg10 mi
4:52 PM61 °FSunny.21 mph13%29.82 "Hg10 mi
3:52 PM60 °FSunny.22 mph14%29.81 "Hg10 mi
2:52 PM60 °FSunny.26 mph13%29.82 "Hg10 mi
1:52 PM58 °FSunny.20 mph14%29.82 "Hg10 mi
12:52 PM57 °FSunny.25 mph15%29.81 "Hg10 mi
11:52 AM56 °FSunny.26 mph16%29.83 "Hg10 mi
10:52 AM54 °FSunny.17 mph19%29.84 "Hg10 mi
9:52 AM51 °FSunny.21 mph22%29.83 "Hg10 mi
8:52 AM48 °FSunny.17 mph24%29.85 "Hg10 mi
7:52 AM46 °FSunny.12 mph27%29.84 "Hg10 mi
6:52 AM44 °FClear.15 mph29%29.82 "Hg10 mi
5:52 AM43 °FClear.16 mph32%29.79 "Hg10 mi
4:52 AM44 °FClear.13 mph40%29.79 "Hg10 mi
Weather by CustomWeather, © 2014

See weather overview